sat.trackr.live / text

‹ back to catalog

FLOCK 4BE-30

NORAD 60499 · 2024-149AH

PAYLOAD ACTIVE UNKNOWN

§ Identity

Operator
Country
US
Launch date
2024-08-16
Launch site
AFWTR
Launch vehicle
Mass (kg)
RCS (m²)

Purposes: earth_obs

External: N2YO · Heavens-Above · Gunter

§ Orbital elements

Epoch: 2026-05-25T04:46:18.408288Z

Period
92.87 min
Inclination
97.3783°
Eccentricity
0.0001634
Mean motion
15.50576637 rev/d
Perigee alt
413.9 km
Apogee alt
416.2 km
Semi-major
6,793.2 km
B*
1.8894e-3
RAAN
230.0463°
Arg perigee
180.8296°
Mean anomaly
179.2953°
Rev number
9,820

§ Raw data

FLOCK 4BE-301 60499U 24149AH  26145.19882417  .00109308  00000+0  18894-2 0  99982 60499  97.3783 230.0463 0001634 180.8296 179.2953 15.50576637 98203

JSON: /api/v1/satellites/60499 · /tle

For live sub-satellite position, see the globe view (requires WebGL).

§ Visibility from observer

Set your observer location to see the next 7 days of passes ≥ 10°. The values pass through the URL so the page stays shareable.

No JS? Fill the form by hand. The geolocation button needs JavaScript.